Location: Axtheid
(49.6213°N, 11.8205°E)
Time: 13:29:35
(UTC+00:00)

X-37B - Pass Details

Date: 24 January 2021
Orbit: 383 x 391 km, 45.0° (Epoch: 10 February)

Event Time Altitude Azimuth Distance (km) Brightness Sun altitude
Rises 18:25:39 0° 261° (W) 2,275 5.9 -24.1°
Reaches altitude 10° 18:27:49 10° 252° (WSW) 1,421 4.4 -24.5°
Enters shadow 18:29:28 24° 231° (SW) 861 2.8 -24.7°
